When you browse on this site, cookies collect data to enhance your experience and personalize the content and advertising you see.
Visit our Privacy Policy to learn more. By continuing to use the site, you agree to this use of cookies and data.
  • In Germany
  • List of Countries
  • For 7 days
  • Water Temperature
  • Weather Map
  • Weather Widgets
  • user-avatar
    Login

    Hourly Weather Antwerp

    Today, 25 May, Monday

    Time Temperature Precipitation Wind Pressure Humidity
    00:00 +12°C° 0 mm 2 mps 773 mmHg 93%
    01:00 +12°C° 0 mm 2 mps 774 mmHg 92%
    02:00 +12°C° 0 mm 2 mps 774 mmHg 92%
    03:00 +12°C° 0 mm 2 mps 774 mmHg 92%
    04:00 +13°C° 0 mm 2 mps 774 mmHg 88%
    05:00 +14°C° 0 mm 2 mps 774 mmHg 84%
    06:00 +15°C° 0 mm 2 mps 774 mmHg 81%
    07:00 +16°C° 0 mm 2 mps 774 mmHg 73%
    08:00 +18°C° 0 mm 3 mps 774 mmHg 66%
    09:00 +19°C° 0 mm 3 mps 775 mmHg 59%
    10:00 +20°C° 0 mm 3 mps 774 mmHg 56%
    11:00 +21°C° 0 mm 4 mps 774 mmHg 53%
    12:00 +21°C° 0 mm 4 mps 774 mmHg 50%
    13:00 +21°C° 0 mm 4 mps 774 mmHg 50%
    14:00 +21°C° 0 mm 4 mps 774 mmHg 50%
    15:00 +21°C° 0 mm 5 mps 774 mmHg 51%
    16:00 +20°C° 0 mm 4 mps 774 mmHg 55%
    17:00 +19°C° 0 mm 4 mps 774 mmHg 59%
    18:00 +18°C° 0 mm 4 mps 774 mmHg 63%
    19:00 +17°C° 0 mm 3 mps 775 mmHg 68%
    20:00 +14°C° 0 mm 3 mps 775 mmHg 73%
    21:00 +13°C° 0 mm 2 mps 775 mmHg 78%
    22:00 +13°C° 0 mm 2 mps 775 mmHg 80%
    23:00 +12°C° 0 mm 2 mps 776 mmHg 82%

    Tomorrow, 26 May, Tuesday

    Time Temperature Precipitation Wind Pressure Humidity
    00:00 +12°C° 0 mm 1 mps 776 mmHg 85%
    01:00 +12°C° 0 mm 1 mps 775 mmHg 86%
    02:00 +11°C° 0 mm 1 mps 775 mmHg 88%
    03:00 +11°C° 0 mm 1 mps 775 mmHg 89%
    04:00 +12°C° 0 mm 1 mps 775 mmHg 85%
    05:00 +13°C° 0 mm 1 mps 776 mmHg 82%
    06:00 +13°C° 0 mm 0 mps 776 mmHg 78%
    07:00 +16°C° 0 mm 1 mps 776 mmHg 70%
    08:00 +19°C° 0 mm 1 mps 776 mmHg 62%
    09:00 +21°C° 0 mm 1 mps 776 mmHg 54%
    10:00 +22°C° 0 mm 1 mps 776 mmHg 52%
    11:00 +23°C° 0 mm 2 mps 775 mmHg 49%
    12:00 +23°C° 0 mm 2 mps 775 mmHg 46%
    13:00 +22°C° 0 mm 3 mps 775 mmHg 47%
    14:00 +22°C° 0 mm 3 mps 775 mmHg 48%
    15:00 +22°C° 0 mm 4 mps 774 mmHg 49%
    16:00 +21°C° 0 mm 4 mps 774 mmHg 53%
    17:00 +20°C° 0 mm 4 mps 774 mmHg 58%
    18:00 +19°C° 0 mm 4 mps 774 mmHg 63%
    19:00 +18°C° 0 mm 3 mps 774 mmHg 64%
    20:00 +16°C° 0 mm 3 mps 775 mmHg 65%
    21:00 +14°C° 0 mm 2 mps 775 mmHg 66%
    22:00 +14°C° 0 mm 2 mps 775 mmHg 66%
    23:00 +13°C° 0 mm 2 mps 775 mmHg 66%

    Day after tomorrow, 27 May, Wednesday

    Time Temperature Precipitation Wind Pressure Humidity
    00:00 +13°C° 0 mm 2 mps 775 mmHg 66%
    01:00 +12°C° 0 mm 1 mps 774 mmHg 68%
    02:00 +12°C° 0 mm 1 mps 774 mmHg 69%
    03:00 +12°C° 0 mm 1 mps 774 mmHg 70%
    04:00 +13°C° 0 mm 1 mps 774 mmHg 69%
    05:00 +14°C° 0 mm 1 mps 774 mmHg 68%
    06:00 +15°C° 0 mm 1 mps 774 mmHg 68%
    07:00 +16°C° 0 mm 2 mps 774 mmHg 63%
    08:00 +18°C° 0 mm 2 mps 774 mmHg 58%
    09:00 +19°C° 0 mm 2 mps 774 mmHg 53%
    10:00 +20°C° 0 mm 3 mps 774 mmHg 52%
    11:00 +21°C° 0 mm 3 mps 774 mmHg 51%
    12:00 +22°C° 0 mm 4 mps 774 mmHg 50%
    13:00 +22°C° 0 mm 4 mps 774 mmHg 50%
    14:00 +22°C° 0 mm 5 mps 774 mmHg 51%
    15:00 +22°C° 0 mm 5 mps 774 mmHg 52%
    16:00 +21°C° 0 mm 5 mps 774 mmHg 54%
    17:00 +20°C° 0 mm 5 mps 774 mmHg 57%
    18:00 +19°C° 0 mm 5 mps 774 mmHg 59%
    19:00 +16°C° 0 mm 5 mps 774 mmHg 62%
    20:00 +15°C° 0 mm 5 mps 774 mmHg 64%
    21:00 +13°C° 0 mm 5 mps 774 mmHg 66%
    22:00 +12°C° 0 mm 4 mps 775 mmHg 69%
    23:00 +11°C° 0 mm 4 mps 775 mmHg 71%

    28 May, Thursday

    Time Temperature Precipitation Wind Pressure Humidity
    00:00 +10°C° 0 mm 4 mps 775 mmHg 73%
    01:00 +8°C° 0 mm 4 mps 775 mmHg 77%
    02:00 +9°C° 0 mm 3 mps 774 mmHg 80%
    03:00 +8°C° 0 mm 3 mps 774 mmHg 83%
    04:00 +9°C° 0 mm 3 mps 774 mmHg 80%
    05:00 +10°C° 0 mm 3 mps 774 mmHg 76%
    06:00 +11°C° 0 mm 3 mps 774 mmHg 73%
    07:00 +12°C° 0 mm 3 mps 774 mmHg 66%
    08:00 +14°C° 0 mm 3 mps 774 mmHg 59%
    09:00 +17°C° 0 mm 3 mps 773 mmHg 53%
    10:00 +18°C° 0 mm 3 mps 773 mmHg 50%
    11:00 +19°C° 0 mm 3 mps 773 mmHg 47%
    12:00 +19°C° 0 mm 4 mps 772 mmHg 44%
    13:00 +20°C° 0 mm 4 mps 772 mmHg 45%
    14:00 +20°C° 0 mm 4 mps 771 mmHg 45%
    15:00 +20°C° 0 mm 5 mps 771 mmHg 46%
    16:00 +19°C° 0 mm 5 mps 771 mmHg 49%
    17:00 +17°C° 0 mm 5 mps 771 mmHg 51%
    18:00 +16°C° 0 mm 5 mps 770 mmHg 54%
    19:00 +14°C° 0 mm 4 mps 770 mmHg 59%
    20:00 +13°C° 0 mm 4 mps 770 mmHg 64%
    21:00 +11°C° 0 mm 4 mps 770 mmHg 69%
    22:00 +10°C° 0 mm 4 mps 770 mmHg 72%
    23:00 +8°C° 0 mm 4 mps 770 mmHg 74%

    29 May, Friday

    Time Temperature Precipitation Wind Pressure Humidity
    00:00 +9°C° 0 mm 3 mps 770 mmHg 77%
    01:00 +8°C° 0 mm 3 mps 770 mmHg 79%
    02:00 +7°C° 0 mm 3 mps 770 mmHg 82%
    03:00 +7°C° 0 mm 3 mps 769 mmHg 84%
    04:00 +8°C° 0 mm 3 mps 769 mmHg 80%
    05:00 +9°C° 0 mm 3 mps 769 mmHg 76%
    06:00 +10°C° 0 mm 3 mps 769 mmHg 71%
    07:00 +11°C° 0 mm 4 mps 769 mmHg 64%
    08:00 +13°C° 0 mm 4 mps 768 mmHg 57%
    09:00 +15°C° 0 mm 4 mps 768 mmHg 50%
    10:00 +17°C° 0 mm 4 mps 768 mmHg 47%
    11:00 +18°C° 0 mm 4 mps 767 mmHg 44%
    12:00 +19°C° 0 mm 4 mps 767 mmHg 41%
    13:00 +19°C° 0 mm 4 mps 767 mmHg 43%
    14:00 +20°C° 0 mm 4 mps 766 mmHg 44%
    15:00 +20°C° 0 mm 4 mps 766 mmHg 45%
    16:00 +19°C° 0 mm 4 mps 766 mmHg 49%
    17:00 +19°C° 0 mm 4 mps 766 mmHg 52%
    18:00 +18°C° 0 mm 4 mps 766 mmHg 55%
    19:00 +17°C° 0 mm 4 mps 766 mmHg 58%
    20:00 +14°C° 0 mm 4 mps 766 mmHg 61%
    21:00 +12°C° 0 mm 4 mps 767 mmHg 63%
    22:00 +12°C° 0 mm 4 mps 767 mmHg 68%
    23:00 +11°C° 0 mm 4 mps 767 mmHg 72%

    30 May, Saturday

    Time Temperature Precipitation Wind Pressure Humidity
    00:00 +10°C° 0 mm 4 mps 767 mmHg 76%
    01:00 +10°C° 0 mm 3 mps 767 mmHg 79%
    02:00 +9°C° 0 mm 3 mps 767 mmHg 83%
    03:00 +8°C° 0 mm 3 mps 767 mmHg 86%
    04:00 +9°C° 0 mm 3 mps 767 mmHg 81%
    05:00 +10°C° 0 mm 3 mps 767 mmHg 76%
    06:00 +12°C° 0 mm 3 mps 768 mmHg 71%
    07:00 +13°C° 0 mm 3 mps 768 mmHg 63%
    08:00 +16°C° 0 mm 3 mps 768 mmHg 55%
    09:00 +18°C° 0 mm 3 mps 767 mmHg 47%
    10:00 +19°C° 0 mm 3 mps 767 mmHg 45%
    11:00 +20°C° 0 mm 3 mps 767 mmHg 43%
    12:00 +21°C° 0 mm 4 mps 767 mmHg 41%
    13:00 +21°C° 0 mm 4 mps 767 mmHg 43%
    14:00 +21°C° 0 mm 4 mps 766 mmHg 44%
    15:00 +21°C° 0 mm 4 mps 766 mmHg 45%
    16:00 +21°C° 0 mm 4 mps 766 mmHg 49%
    17:00 +20°C° 0 mm 3 mps 766 mmHg 53%
    18:00 +20°C° 0 mm 3 mps 765 mmHg 57%
    19:00 +18°C° 0 mm 3 mps 766 mmHg 64%
    20:00 +16°C° 0 mm 3 mps 766 mmHg 70%
    21:00 +14°C° 0 mm 3 mps 766 mmHg 76%
    22:00 +13°C° 0 mm 3 mps 766 mmHg 80%
    23:00 +12°C° 0 mm 3 mps 766 mmHg 84%
    Show more